Вернуться в каталог

STARLINK-11230

АктивенСвязьVLEO
NORAD 61053·PAYLOAD·🇺🇸 United States

Запущен Sep 13, 2024 с Vandenberg Space Force Base

Loading…

Ближайшие Пролёты (ближайшие 24 часа)

TLE

СвежийSource: CelesTrak SupGP

Эпоха: Sep 14, 2026, 22:18 UTC

1 61053C 24164D   26257.92965278 -.00014585  00000+0 -12012-3 0  2572
2 61053  53.1563  98.2334 0001066  89.4208 257.3497 15.69720926    18

Отслеживайте STARLINK-11230 в реальном времени с AllMySat

Download on the App Store